Flag for U.S.A. Weather past 2 weeks in Corvallis, Oregon, U.S.A.

Now
52 °F

Sunny.


Feels Like: 52 °F
Forecast: 37 / 54 °F
Wind: No wind

Location: Corvallis Municipal

Current Time: Mar 1, 2015 at 5:32:53 PM

Latest Report: Mar 1, 2015 at 4:55 PM


Visibility: 10 mi

Pressure: 30.04 "Hg

Humidity: 58%

Dew point: 37 °F

Location of CorvallisLocation

Historic Weather in Corvallis — Graph

°F

Corvallis temperature yesterday

Maximum temperature yesterday: 57 °F (at 2:15 PM)
Minimum temperature yesterday: 32 °F (at 11:35 PM)
Average temperature yesterday: 47 °F

Past Weeks' High & Low Weather Summary

 TemperatureHumidityPressure
High66 °F (Feb 16, 2:35 PM)100% (Feb 16, 8:15 AM)30.49 "Hg (Feb 16, 8:15 AM)
Low25 °F (Feb 23, 6:55 AM)22% (Feb 23, 3:55 PM)29.71 "Hg (Feb 27, 3:55 PM)
Average46 °F72%30.21 "Hg
* Reported Feb 14 4:15 PM — Mar 1 4:35 PM, Corvallis, Weather by CustomWeather, © 2015

Note: Actual official high and low records may vary slightly from our data, if they occured in-between our weather recording intervals... More about our weather records

Advertising

Corvallis weather history for previous 24 hours

 ConditionsComfort  
Time TempWeatherWind HumidityBarometerVisibility
4:35 PM
Sun, Mar 1
54 °FSunny.No wind47%30.05 "Hg10 mi
4:15 PM55 °FSunny.3 mph38%30.05 "Hg10 mi
3:55 PM55 °FSunny.6 mph44%30.06 "Hg10 mi
3:35 PM57 °FSunny.5 mph39%30.07 "Hg10 mi
3:15 PM57 °FSunny.3 mph39%30.08 "Hg10 mi
2:55 PM57 °FSunny.3 mph44%30.09 "Hg10 mi
2:35 PM57 °FSunny.5 mph41%30.10 "Hg10 mi
2:15 PM57 °FSunny.6 mph39%30.11 "Hg10 mi
1:55 PM55 °FSunny.No wind44%30.12 "Hg10 mi
1:35 PM54 °FSunny.3 mph41%30.13 "Hg10 mi
1:15 PM54 °FSunny.No wind44%30.14 "Hg10 mi
12:55 PM52 °FSunny.No wind50%30.15 "Hg10 mi
12:35 PM52 °FSunny.No wind44%30.17 "Hg10 mi
12:15 PM52 °FSunny.3 mph44%30.18 "Hg10 mi
11:35 AM48 °FSunny.3 mph46%30.20 "Hg10 mi
11:15 AM46 °FSunny.No wind53%30.21 "Hg10 mi
10:55 AM46 °FSunny.3 mph53%30.22 "Hg10 mi
10:35 AM45 °FSunny.5 mph53%30.22 "Hg10 mi
10:15 AM43 °FSunny.No wind61%30.23 "Hg10 mi
9:55 AM43 °FSunny.No wind61%30.23 "Hg10 mi
9:35 AM37 °FSunny.No wind70%30.24 "Hg10 mi
8:55 AM36 °FSunny.No wind75%30.24 "Hg10 mi
8:35 AM34 °FSunny.No wind87%30.24 "Hg10 mi
8:15 AM34 °FSunny.No wind81%30.24 "Hg10 mi
7:55 AM30 °FSunny.No wind93%30.24 "Hg10 mi
7:35 AM28 °FSunny.No wind93%30.23 "Hg10 mi
7:15 AM28 °FSunny.5 mph93%30.22 "Hg10 mi
6:55 AM27 °FSunny.5 mph93%30.22 "Hg10 mi
6:35 AM27 °FClear.3 mph93%30.22 "Hg10 mi
6:15 AM28 °FClear.No wind93%30.22 "Hg10 mi
5:55 AM28 °FClear.No wind93%30.22 "Hg10 mi
5:35 AM27 °FClear.5 mph93%30.21 "Hg10 mi
5:15 AM28 °FClear.No wind86%30.22 "Hg10 mi
4:55 AM28 °FClear.No wind86%30.21 "Hg10 mi
4:35 AM30 °FClear.No wind86%30.21 "Hg10 mi
4:15 AM30 °FClear.No wind86%30.21 "Hg10 mi
3:55 AM30 °FClear.3 mph93%30.22 "Hg10 mi
3:35 AM30 °FClear.6 mph93%30.22 "Hg9 mi
3:15 AM30 °FClear.5 mph86%30.22 "Hg10 mi
2:55 AM30 °FClear.No wind93%30.22 "Hg10 mi
2:35 AM30 °FClear.3 mph93%30.23 "Hg10 mi
2:15 AM30 °FClear.No wind86%30.23 "Hg10 mi
1:55 AM30 °FClear.No wind86%30.23 "Hg7 mi
1:35 AM34 °FClear.No wind81%30.23 "Hg10 mi
1:15 AM30 °FClear.No wind86%30.24 "Hg10 mi
12:55 AM32 °FClear.No wind87%30.23 "Hg10 mi
12:35 AM34 °FClear.No wind81%30.22 "Hg10 mi
12:15 AM34 °FClear.6 mph81%30.22 "Hg10 mi
11:55 PM
Sat, Feb 28
32 °FClear.7 mph87%30.21 "Hg10 mi
11:35 PM32 °FClear.6 mph87%30.21 "Hg10 mi
11:15 PM34 °FClear.5 mph81%30.21 "Hg10 mi
10:55 PM34 °FChilly.3 mph81%30.21 "HgN/A
10:35 PM36 °FClear.5 mph75%30.21 "Hg10 mi
10:15 PM37 °FClear.No wind70%30.20 "Hg10 mi
9:55 PM37 °FClear.5 mph70%30.19 "Hg10 mi
9:15 PM37 °FClear.8 mph70%30.19 "Hg10 mi
8:55 PM43 °FClear.6 mph53%30.18 "Hg10 mi
8:35 PM45 °FClear.N/A49%30.17 "Hg10 mi
8:15 PM45 °FClear.3 mph49%30.16 "Hg10 mi
7:55 PM46 °FClear.No wind46%30.16 "Hg10 mi
7:15 PM45 °FClear.6 mph53%30.15 "Hg10 mi
6:55 PM46 °FClear.8 mph46%30.14 "Hg10 mi
6:35 PM46 °FClear.6 mph46%30.13 "Hg9 mi
6:15 PM48 °FClear.6 mph43%30.12 "Hg10 mi
5:55 PM50 °FSunny.8 mph40%30.12 "Hg10 mi
5:35 PM52 °FSunny.9 mph38%30.12 "Hg10 mi
5:15 PM54 °FSunny.8 mph33%30.11 "Hg10 mi
Weather by CustomWeather, © 2015

See weather overviewHow to use our weather pages